Wind_Speed
39 39 39 41 40 39 38 36 35 33 31 29 27 25 24 23 22 22 22 21 21 23 24 24 26 25 25 26 25 26 25 25 24 23 22 21 20 19 19 18 17 16 14
39 39 40 41 42 41 40 38 37 35 32 31 28 26 24 24 24 23 22 21 21 22 23 24 25 25 25 25 26 27 27 26 26 25 24 23 22 21 20 19 19 18 17
39 40 42 42 43 43 41 40 38 37 35 32 30 28 26 24 24 23 23 21 21 21 22 23 24 24 24 24 25 26 27 26 26 26 26 26 25 23 22 21 21 20 19
37 40 42 42 43 43 42 41 39 38 35 33 31 29 28 26 25 25 23 22 21 20 21 22 22 22 23 23 23 23 24 26 26 27 28 29 28 26 25 24 22 21 20
34 37 39 40 41 42 42 41 40 38 36 34 32 30 29 27 26 26 24 23 21 20 20 20 21 21 21 21 22 22 23 24 24 26 28 29 30 29 28 27 26 24 23
34 35 37 38 40 41 41 40 40 38 36 34 33 31 30 28 27 26 25 24 21 20 19 19 20 20 20 20 21 22 22 22 23 24 25 27 30 30 30 29 29 28 26
34 34 35 36 38 39 39 38 38 37 35 34 33 31 30 29 28 26 26 25 23 21 20 19 19 18 18 19 19 20 20 21 22 23 24 25 27 29 30 30 31 31 30
34 32 32 34 35 37 38 39 37 37 35 34 34 33 30 29 28 28 27 26 24 22 21 19 18 17 16 16 16 17 18 19 20 22 24 25 25 27 29 30 29 31 32
36 33 32 32 34 36 37 37 38 36 35 35 34 33 31 30 29 29 28 27 25 24 22 20 18 16 15 15 14 15 15 17 19 20 22 24 25 26 27 29 30 30 31
38 36 34 33 33 35 36 38 38 36 35 35 35 33 33 31 30 30 29 28 27 25 24 22 20 17 16 15 14 14 14 15 17 19 21 23 25 27 28 28 30 30 31
41 39 38 36 34 34 36 37 37 36 36 36 35 34 34 33 33 31 31 30 29 28 26 24 22 19 17 15 15 14 14 15 17 18 20 22 24 26 27 28 30 30 30
44 43 42 41 40 39 38 39 39 37 37 37 37 36 36 36 35 34 33 32 31 30 28 26 24 21 18 16 15 14 14 15 16 18 20 22 24 26 28 29 29 30 31
47 47 46 46 45 44 43 43 42 41 41 40 39 39 39 39 38 37 36 35 33 32 30 29 26 23 20 18 16 15 15 15 16 18 20 22 23 25 27 29 29 29 30
47 47 49 49 49 49 49 48 47 46 45 44 42 42 42 41 41 40 39 37 36 34 33 31 28 26 23 21 19 17 16 16 17 17 19 20 23 24 26 27 28 29 29
46 47 48 49 51 52 53 54 53 52 50 49 47 45 45 44 44 43 43 41 39 37 35 33 31 28 26 23 21 19 17 17 17 17 18 19 21 22 24 26 27 27 28
47 48 49 51 52 53 54 57 57 57 55 53 51 50 48 47 47 46 45 44 42 40 37 35 33 31 28 25 22 20 18 17 17 18 18 18 19 21 23 24 26 26 26
50 51 51 51 53 56 58 58 59 61 61 59 56 55 53 51 49 49 48 47 45 43 41 38 36 33 30 27 24 22 19 18 18 18 18 18 19 19 20 22 23 24 25
54 54 55 55 55 57 59 61 62 64 65 65 62 60 58 54 53 51 50 49 48 46 44 42 39 36 33 30 27 24 21 19 18 18 18 18 18 19 19 20 20 22 23
57 58 58 59 59 59 60 61 64 66 67 68 67 66 63 60 56 54 53 51 50 49 47 45 42 39 37 33 30 27 24 22 20 19 18 18 18 19 20 20 20 21 21
57 58 59 59 60 61 61 62 64 67 68 69 70 69 69 66 63 59 56 54 53 52 50 48 46 42 39 36 33 29 27 25 22 21 20 19 19 20 21 21 21 21 21
56 55 56 58 59 61 62 63 64 66 68 68 70 71 71 71 70 65 60 57 55 53 52 50 49 46 42 39 36 33 29 27 25 22 21 20 20 20 21 22 22 22 22
50 51 51 53 56 58 61 62 63 65 66 66 67 69 72 73 72 71 67 62 58 55 53 52 51 48 45 42 39 36 32 29 26 24 22 21 21 21 21 22 22 22 22
45 44 45 47 49 52 55 58 61 63 63 63 64 65 68 71 73 73 70 67 62 58 56 54 52 51 48 45 42 39 36 32 29 26 24 22 21 21 21 21 21 22 22
38 37 38 39 42 45 49 54 57 59 59 59 59 60 61 65 69 72 72 70 66 63 59 56 54 51 50 48 46 43 39 35 31 28 25 23 23 22 21 20 20 21 21
32 30 29 31 34 37 41 47 51 54 54 54 55 55 55 57 61 67 71 70 68 65 62 59 56 53 52 50 47 44 40 37 33 29 27 25 24 23 22 21 21 21 20
28 24 22 23 26 30 34 40 44 47 49 49 50 50 50 52 54 58 64 68 69 66 61 60 58 55 52 50 48 45 42 39 36 32 28 26 25 24 23 22 21 21 20
Wind_Direction
281 277 274 270 266 265 264 262 263 262 260 259 259 258 257 253 253 254 254 252 250 249 249 248 247 246 246 245 244 242 238 232 226 223 222 223 225 227 228 229 229 231 232
282 275 273 269 264 262 261 260 261 260 259 258 258 257 255 252 252 253 254 252 249 250 249 247 246 247 248 248 246 244 242 238 232 226 223 223 225 228 230 232 232 233 234
283 277 272 268 262 259 258 258 259 258 257 255 255 254 252 252 252 255 253 251 250 251 249 247 246 246 245 248 248 246 242 240 236 233 228 225 225 227 230 233 235 236 238
285 279 272 267 262 257 255 255 257 257 254 253 252 252 250 248 250 251 250 248 248 248 247 244 243 243 243 246 247 247 247 243 240 239 234 230 227 227 230 232 235 237 238
285 279 271 264 260 256 255 254 255 255 254 252 251 249 247 246 246 247 247 244 246 246 243 240 239 241 242 245 247 247 248 246 244 242 240 237 235 233 232 233 234 235 238
289 283 271 262 258 255 254 254 254 253 252 250 249 248 247 245 242 243 242 242 243 241 238 236 236 238 241 244 246 247 248 247 247 246 243 243 241 239 236 235 235 236 237
288 286 273 261 256 252 250 252 251 249 248 246 246 245 245 243 242 238 238 238 237 236 235 233 234 235 238 241 245 247 247 248 248 247 245 245 244 244 240 240 239 237 237
287 285 275 262 257 252 250 249 249 246 244 243 243 243 242 241 239 236 235 234 233 231 230 230 230 233 237 240 244 248 249 250 250 249 248 247 247 246 245 242 241 239 239
285 282 275 265 258 253 250 247 247 244 241 241 240 240 239 238 237 235 233 232 230 228 228 228 228 230 235 239 244 250 254 255 254 253 252 249 248 248 248 247 244 245 244
279 277 271 265 259 254 250 246 245 242 240 239 238 237 237 236 235 233 231 229 228 228 228 227 227 229 234 241 247 254 259 262 262 259 256 254 252 250 249 250 248 249 249
274 270 267 264 259 254 251 246 244 242 240 239 237 236 235 234 233 231 230 228 228 228 227 226 226 229 234 241 248 255 261 264 265 264 261 259 256 254 251 250 250 249 248
272 268 264 260 256 252 250 249 246 244 241 238 236 235 234 232 230 229 229 227 227 227 226 226 227 230 234 241 249 255 262 267 268 267 266 264 261 258 254 251 250 249 248
271 266 262 258 255 251 248 247 247 245 242 238 237 235 233 231 230 228 228 227 227 227 226 226 227 230 234 240 249 257 265 270 272 271 269 267 265 260 256 251 251 250 249
272 267 262 257 253 250 248 246 245 245 243 240 238 235 233 231 229 228 227 226 226 226 227 227 228 230 234 239 247 255 264 271 274 274 272 271 268 262 257 253 252 251 249
272 268 264 258 254 250 247 246 244 242 241 240 239 236 234 231 229 228 227 226 226 226 226 226 228 230 233 238 244 252 262 269 274 276 276 273 268 263 257 253 252 251 249
273 270 266 261 255 250 247 244 243 241 240 239 238 237 234 231 229 228 227 227 226 227 226 226 227 228 231 236 241 249 259 267 272 275 276 275 269 262 257 255 252 252 251
274 270 266 262 257 252 248 245 242 240 239 237 236 235 235 233 230 228 228 227 226 227 227 226 226 227 229 233 238 245 254 264 271 274 277 276 270 263 258 255 251 249 249
275 271 266 262 258 253 249 245 243 239 237 237 235 233 234 232 230 228 228 227 227 226 227 227 226 226 227 230 235 241 249 260 268 273 276 275 269 262 258 254 252 250 248
276 271 266 262 257 253 249 245 242 240 238 236 235 233 232 231 230 228 227 227 227 227 226 227 227 226 227 229 233 239 246 255 263 269 273 273 269 262 257 254 252 251 248
279 272 266 261 256 251 248 245 242 239 237 236 235 233 232 231 229 229 227 227 227 227 226 226 227 227 227 229 232 237 243 250 257 264 270 272 269 263 258 255 253 251 248
283 275 267 260 255 250 246 243 241 240 238 236 234 233 232 231 231 230 228 227 226 227 226 226 227 227 227 228 230 234 240 246 252 259 265 268 268 264 259 256 254 252 250
286 277 270 261 255 250 245 241 239 238 237 236 234 233 232 232 231 231 230 228 227 227 226 226 226 227 226 227 229 232 236 242 247 253 258 263 266 264 261 257 255 253 253
289 280 271 262 255 248 243 238 236 234 234 234 233 233 232 232 231 231 231 230 229 228 227 225 225 226 225 225 227 229 233 237 242 248 254 259 263 263 260 257 256 254 254
294 284 273 262 253 247 241 236 233 232 231 231 232 231 231 232 231 230 230 230 230 229 227 227 225 224 224 224 225 227 230 234 239 244 249 254 258 259 258 256 255 254 254
303 290 276 262 251 244 239 233 229 228 228 229 229 230 230 230 230 229 229 230 230 230 229 227 225 224 223 223 224 226 227 231 235 239 244 250 253 255 255 255 255 255 254
313 299 279 264 250 241 235 229 225 224 224 223 225 226 227 228 228 228 228 228 229 229 228 228 226 224 223 221 222 223 224 227 231 235 239 245 248 252 252 251 253 255 253
Height
5856 5855 5854 5853 5853 5854 5855 5856 5857 5857 5858 5858 5858 5859 5860 5861 5862 5863 5864 5864 5865 5866 5868 5869 5870 5871 5873 5874 5876 5878 5880 5881 5884 5886 5888 5891 5894 5896 5898 5900 5902 5904 5905
5846 5845 5844 5844 5844 5845 5846 5848 5849 5850 5851 5851 5852 5853 5854 5855 5857 5857 5858 5859 5860 5861 5862 5863 5864 5866 5868 5869 5871 5873 5875 5877 5879 5881 5884 5887 5890 5892 5895 5897 5899 5901 5903
5836 5834 5833 5834 5835 5836 5837 5839 5841 5842 5843 5844 5845 5847 5848 5849 5850 5852 5853 5854 5855 5856 5857 5858 5859 5861 5862 5864 5866 5867 5869 5872 5874 5877 5880 5883 5885 5888 5891 5893 5896 5898 5900
5825 5824 5823 5824 5825 5826 5828 5830 5832 5834 5835 5836 5838 5839 5841 5843 5844 5846 5847 5848 5849 5850 5851 5853 5854 5856 5858 5859 5861 5862 5864 5867 5869 5872 5874 5877 5880 5883 5886 5889 5892 5894 5896
5816 5814 5813 5813 5815 5817 5819 5822 5824 5825 5827 5829 5830 5832 5834 5836 5838 5840 5841 5842 5843 5845 5846 5848 5849 5851 5853 5855 5857 5858 5860 5862 5864 5867 5869 5872 5875 5878 5881 5884 5887 5889 5892
5809 5805 5803 5803 5804 5807 5810 5813 5815 5817 5819 5821 5823 5825 5827 5829 5831 5833 5835 5837 5838 5840 5841 5843 5845 5847 5849 5850 5852 5854 5856 5857 5860 5862 5864 5866 5869 5872 5875 5878 5881 5884 5886
5801 5797 5794 5794 5795 5797 5800 5803 5806 5808 5811 5813 5815 5818 5820 5822 5824 5827 5829 5831 5833 5835 5837 5838 5840 5842 5844 5846 5848 5850 5851 5853 5855 5857 5859 5861 5863 5866 5869 5871 5874 5877 5880
5793 5789 5787 5786 5787 5788 5791 5795 5797 5799 5801 5804 5807 5810 5813 5816 5818 5820 5823 5825 5828 5830 5832 5834 5836 5838 5840 5842 5844 5846 5847 5849 5850 5852 5854 5856 5858 5860 5862 5865 5868 5871 5874
5783 5781 5779 5779 5779 5780 5783 5785 5788 5790 5793 5795 5798 5802 5806 5808 5811 5815 5817 5819 5822 5825 5827 5829 5832 5834 5836 5838 5840 5842 5843 5845 5846 5847 5849 5851 5853 5855 5857 5859 5861 5864 5867
5774 5772 5771 5771 5771 5773 5774 5776 5778 5780 5783 5786 5790 5793 5798 5801 5805 5808 5811 5813 5816 5819 5822 5824 5827 5830 5832 5834 5835 5837 5839 5840 5841 5842 5844 5845 5847 5849 5851 5853 5855 5857 5860
5763 5762 5762 5762 5763 5764 5765 5766 5768 5770 5773 5777 5780 5784 5789 5793 5796 5800 5803 5807 5810 5813 5816 5819 5822 5825 5827 5829 5831 5833 5834 5835 5836 5837 5838 5840 5841 5842 5844 5846 5848 5850 5852
5751 5751 5751 5751 5752 5754 5755 5756 5758 5760 5763 5767 5771 5775 5780 5784 5788 5792 5796 5800 5803 5807 5810 5814 5817 5820 5822 5824 5826 5828 5829 5830 5831 5832 5833 5834 5835 5836 5838 5839 5841 5843 5845
5737 5737 5737 5738 5740 5742 5744 5745 5747 5750 5753 5757 5760 5765 5770 5775 5779 5783 5788 5792 5796 5800 5804 5807 5811 5814 5817 5819 5821 5823 5824 5825 5826 5827 5827 5828 5828 5829 5830 5832 5834 5836 5838
5721 5721 5722 5724 5725 5728 5730 5733 5736 5739 5742 5746 5750 5754 5759 5764 5769 5774 5779 5784 5788 5793 5796 5801 5804 5808 5811 5813 5816 5818 5819 5820 5821 5821 5821 5821 5822 5823 5824 5826 5827 5829 5831
5706 5706 5706 5708 5710 5712 5715 5718 5722 5726 5729 5734 5738 5743 5747 5753 5758 5764 5769 5774 5780 5784 5789 5793 5797 5801 5805 5808 5810 5812 5813 5814 5815 5816 5816 5816 5816 5817 5818 5819 5821 5822 5824
5691 5690 5690 5691 5693 5695 5698 5702 5706 5710 5715 5720 5725 5730 5735 5741 5747 5752 5758 5764 5770 5775 5780 5785 5790 5794 5798 5801 5804 5806 5808 5809 5810 5810 5811 5810 5811 5812 5813 5814 5815 5816 5818
5674 5673 5673 5673 5675 5677 5680 5684 5689 5693 5699 5704 5710 5717 5723 5728 5734 5740 5747 5753 5759 5765 5771 5776 5781 5786 5790 5794 5797 5800 5802 5803 5804 5805 5805 5805 5806 5806 5807 5808 5809 5811 5812
5655 5653 5653 5654 5655 5657 5660 5665 5670 5675 5681 5687 5694 5701 5708 5714 5720 5727 5734 5741 5748 5755 5761 5767 5772 5777 5782 5787 5790 5793 5795 5797 5798 5799 5800 5800 5801 5801 5802 5804 5805 5806 5807
5633 5631 5630 5631 5633 5636 5639 5644 5649 5655 5662 5669 5676 5684 5691 5699 5707 5714 5721 5729 5736 5743 5750 5756 5762 5768 5774 5779 5783 5786 5789 5791 5793 5794 5795 5795 5796 5797 5798 5799 5800 5801 5803
5608 5606 5606 5607 5609 5613 5617 5623 5628 5635 5642 5649 5658 5666 5674 5682 5691 5699 5707 5715 5723 5731 5738 5745 5752 5758 5764 5770 5775 5779 5782 5785 5787 5788 5789 5790 5791 5791 5793 5794 5795 5797 5798
5583 5581 5580 5582 5585 5589 5594 5601 5608 5614 5621 5630 5639 5648 5657 5666 5675 5683 5692 5701 5710 5718 5726 5734 5741 5748 5755 5761 5766 5771 5774 5777 5780 5782 5784 5785 5785 5786 5787 5788 5790 5791 5793
5560 5557 5556 5557 5560 5565 5571 5578 5586 5594 5602 5611 5620 5629 5639 5649 5658 5667 5677 5686 5696 5705 5714 5722 5730 5737 5745 5751 5757 5762 5766 5770 5774 5776 5777 5779 5780 5781 5782 5783 5784 5786 5787
5540 5536 5534 5535 5538 5543 5549 5557 5565 5574 5584 5593 5603 5612 5621 5631 5642 5652 5662 5672 5681 5691 5701 5709 5717 5726 5733 5741 5747 5753 5758 5762 5766 5769 5771 5773 5774 5776 5777 5777 5779 5780 5782
5523 5519 5517 5517 5520 5524 5530 5538 5547 5557 5568 5578 5587 5596 5606 5615 5626 5636 5647 5658 5668 5678 5689 5697 5706 5714 5721 5729 5736 5743 5749 5754 5759 5762 5765 5767 5769 5770 5771 5772 5774 5775 5776
5511 5506 5503 5503 5506 5510 5515 5523 5532 5543 5554 5565 5574 5583 5592 5602 5612 5623 5634 5645 5656 5666 5675 5685 5694 5702 5710 5718 5726 5734 5741 5746 5751 5755 5758 5761 5763 5764 5766 5767 5768 5770 5771
5502 5497 5494 5494 5496 5500 5505 5512 5521 5532 5543 5554 5564 5573 5582 5591 5599 5608 5619 5630 5641 5652 5662 5673 5682 5690 5699 5708 5716 5724 5731 5737 5742 5747 5751 5754 5756 5759 5760 5762 5763 5764 5766